TimeEDT,TemperatureF,Dew PointF,Humidity,Sea Level PressureIn,VisibilityMPH,Wind Direction,Wind SpeedMPH,Gust SpeedMPH,PrecipitationIn,Events,Conditions,WindDirDegrees,DateUTC
12:54 AM,57.2,55.4,94,30.29,4.0,SE,6.9,-,N/A,Rain,Rain,130,2013-05-19 04:54:00
1:54 AM,57.0,55.0,93,30.27,10.0,SE,6.9,-,0.11,Rain,Light Rain,130,2013-05-19 05:54:00
2:20 AM,57.2,55.4,94,30.26,8.0,SE,6.9,-,0.00,Rain,Light Rain,130,2013-05-19 06:20:00
2:41 AM,57.2,55.4,94,30.26,10.0,ESE,5.8,-,0.00,,Overcast,110,2013-05-19 06:41:00
2:54 AM,57.0,55.9,96,30.26,10.0,ESE,6.9,-,0.00,,Overcast,110,2013-05-19 06:54:00
3:02 AM,57.2,55.4,94,30.25,10.0,ESE,6.9,-,N/A,,Overcast,120,2013-05-19 07:02:00
3:28 AM,57.2,55.4,94,30.25,10.0,SE,6.9,-,N/A,,Overcast,130,2013-05-19 07:28:00
3:54 AM,57.0,55.9,96,30.25,10.0,ESE,6.9,-,N/A,,Overcast,110,2013-05-19 07:54:00
4:54 AM,57.0,55.9,96,30.25,10.0,ESE,5.8,-,0.00,,Overcast,120,2013-05-19 08:54:00
5:05 AM,57.2,55.4,94,30.26,10.0,ESE,6.9,-,N/A,,Overcast,120,2013-05-19 09:05:00
5:14 AM,57.2,55.4,94,30.26,10.0,East,4.6,-,N/A,,Overcast,100,2013-05-19 09:14:00
5:45 AM,57.2,55.4,94,30.27,5.0,East,5.8,-,0.01,Rain,Light Rain,100,2013-05-19 09:45:00
5:54 AM,57.0,55.0,93,30.27,7.0,East,8.1,-,0.01,Rain,Light Rain,100,2013-05-19 09:54:00
6:54 AM,55.9,55.0,97,30.27,4.0,East,6.9,-,0.02,,Overcast,90,2013-05-19 10:54:00
7:44 AM,57.2,55.4,94,30.27,8.0,East,5.8,-,N/A,,Overcast,90,2013-05-19 11:44:00
7:54 AM,57.2,55.4,94,30.27,10.0,East,6.9,-,N/A,,Overcast,80,2013-05-19 11:54:00
8:25 AM,57.2,55.4,94,30.28,10.0,ESE,5.8,-,N/A,,Overcast,110,2013-05-19 12:25:00
8:54 AM,57.9,55.9,93,30.28,9.0,East,6.9,-,0.00,Rain,Light Rain,100,2013-05-19 12:54:00
9:54 AM,59.0,57.0,93,30.28,7.0,ESE,10.4,-,0.01,,Overcast,120,2013-05-19 13:54:00
10:54 AM,60.1,57.9,93,30.28,10.0,ESE,6.9,-,N/A,,Overcast,120,2013-05-19 14:54:00
11:54 AM,61.0,57.9,90,30.27,7.0,ESE,6.9,-,N/A,,Overcast,120,2013-05-19 15:54:00
12:17 PM,60.8,57.2,88,30.26,2.0,SE,9.2,-,0.00,Rain,Light Rain,130,2013-05-19 16:17:00
12:54 PM,61.0,59.0,93,30.25,2.0,ESE,9.2,-,0.01,,Overcast,110,2013-05-19 16:54:00
1:54 PM,61.0,59.0,93,30.23,3.0,ESE,8.1,-,0.00,,Overcast,110,2013-05-19 17:54:00
2:54 PM,60.8,59.0,94,30.22,3.0,ESE,8.1,-,N/A,,Overcast,110,2013-05-19 18:54:00
3:54 PM,60.8,59.0,94,30.19,7.0,ESE,9.2,-,N/A,,Overcast,120,2013-05-19 19:54:00
4:54 PM,61.0,59.0,93,30.18,8.0,ESE,10.4,-,N/A,,Overcast,110,2013-05-19 20:54:00
5:54 PM,61.0,60.1,97,30.18,3.0,ESE,5.8,-,N/A,,Overcast,120,2013-05-19 21:54:00
6:10 PM,60.8,60.8,100,30.18,3.0,East,6.9,-,N/A,,Overcast,100,2013-05-19 22:10:00
6:54 PM,61.0,60.1,97,30.19,3.0,East,5.8,-,N/A,,Overcast,90,2013-05-19 22:54:00
7:54 PM,61.0,60.1,97,30.18,3.0,East,5.8,-,N/A,,Overcast,80,2013-05-19 23:54:00
8:54 PM,61.0,59.0,93,30.18,3.0,East,5.8,-,N/A,,Overcast,80,2013-05-20 00:54:00
9:38 PM,60.8,59.0,94,30.19,2.0,East,4.6,-,N/A,,Overcast,100,2013-05-20 01:38:00
9:46 PM,60.8,59.0,94,30.19,1.2,East,3.5,-,N/A,,Overcast,100,2013-05-20 01:46:00
9:54 PM,60.1,59.0,96,30.19,0.8,East,3.5,-,N/A,,Overcast,100,2013-05-20 01:54:00
10:54 PM,61.0,60.1,97,30.19,1.0,SE,3.5,-,N/A,,Mist,140,2013-05-20 02:54:00
11:13 PM,60.8,60.8,100,30.18,0.8,Calm,Calm,-,N/A,,Mist,0,2013-05-20 03:13:00
11:33 PM,60.8,60.8,100,30.18,1.2,ESE,3.5,-,N/A,,Overcast,110,2013-05-20 03:33:00
11:54 PM,60.8,60.8,100,30.18,1.0,Calm,Calm,-,N/A,,Overcast,0,2013-05-20 03:54:00